This demonstration page uses our WeatherBlox Daily Observations layout. Learn more.

Left ArrowRight Arrow

Hourly Observations for January 13, 2022

Temp ( °F °C ) Dew Point ( °F °C ) Humidity (%) Winds ( mph kmh ) Pressure ( in mb ) Visibility ( mi km ) Precip ( " mm )
12:52 am 00:52 Cloudy 38 3.3 27 -2.8 65 65 SE 6 9 29.98 1015 10 16 0.00 0.00
1:52 am 01:52 Cloudy 39 3.9 27 -2.8 62 62 S 3 6 29.96 1015 10 16 0.00 0.00
2:52 am 02:52 Cloudy 41 5 26 -3.3 55 55 NW 3 6 29.97 1015 10 16 0.00 0.00
3:52 am 03:52 Mostly Clear 43 6.1 26 -3.3 51 51 NW 6 9 29.97 1015 10 16 0.00 0.00
4:52 am 04:52 Clear 39 3.9 26 -3.3 60 60 WNW 8 13 29.98 1015 10 16 0.00 0.00
5:52 am 05:52 Clear 36 2.2 27 -2.8 70 70 NNW 6 9 30.00 1016 10 16 0.00 0.00
6:52 am 06:52 Clear 41 5 31 -0.6 67 67 NNW 15 24 30.03 1017 10 16 0.00 0.00
7:52 am 07:52 Sunny 38 3.3 30 -1.1 73 73 NW 9 15 30.05 1018 10 16 0.00 0.00
8:52 am 08:52 Sunny 41 5 31 -0.6 67 67 NNW 16 26 30.06 1018 10 16 0.00 0.00
9:52 am 09:52 Sunny 43 6.1 31 -0.6 63 63 NNW 16 26 30.09 1019 10 16 0.00 0.00
10:52 am 10:52 Sunny 45 7.2 32 0 61 61 NNW 14 22 30.11 1020 10 16 0.00 0.00
11:52 am 11:52 Mostly Sunny 49 9.4 33 0.6 55 55 N 16 26 30.10 1019 10 16 0.00 0.00
12:52 pm 12:52 Mostly Cloudy 52 11.1 32 0 47 47 NNW 13 20 30.08 1019 10 16 0.00 0.00
1:52 pm 13:52 Mostly Cloudy 53 11.7 31 -0.6 43 43 NNW 10 17 30.07 1018 10 16 0.00 0.00
2:52 pm 14:52 Mostly Cloudy 54 12.2 31 -0.6 42 42 NNW 12 19 30.06 1018 10 16 0.00 0.00
3:52 pm 15:52 Mostly Cloudy 52 11.1 30 -1.1 43 43 NNW 12 19 30.07 1018 10 16 0.00 0.00
4:52 pm 16:52 Mostly Cloudy 47 8.3 30 -1.1 52 52 N 8 13 30.08 1019 10 16 0.00 0.00
5:52 pm 17:52 Mostly Cloudy 41 5 28 -2.2 60 60 N 6 9 30.08 1019 10 16 0.00 0.00
6:52 pm 18:52 Mostly Cloudy 38 3.3 28 -2.2 68 68 N 6 9 30.10 1019 10 16 0.00 0.00
7:52 pm 19:52 Mostly Cloudy 37 2.8 28 -2.2 70 70 N 7 11 30.10 1019 10 16 0.00 0.00
8:52 pm 20:52 Cloudy 36 2.2 27 -2.8 70 70 NNW 5 7 30.09 1019 10 16 0.00 0.00
9:52 pm 21:52 Cloudy 33 0.6 26 -3.3 75 75 Calm 30.09 1019 10 16 0.00 0.00
10:52 pm 22:52 Cloudy 34 1.1 27 -2.8 76 76 ENE 7 11 30.07 1018 10 16 0.00 0.00
11:52 pm 23:52 Cloudy 33 0.6 27 -2.8 78 78 Calm 30.08 1019 10 16 0.00 0.00

Powered by AerisWeather